| time (UTC) | temp F | wind direction | speed MPH | gust MPH | rain 1hr in | rain 24hr in | rain mn in | humidity % | barometer mb |
| 20260504223901 | 81 | 167 | 4.0 | 7.0 | 0.00 | 0.00 | 0.00 | 62 | 1009.6 |
| 20260504223527 | 82 | 167 | 5.0 | 8.0 | 0.00 | 0.00 | 0.00 | 63 | 1012.6 |
| 20260504222529 | 81 | 168 | 7.0 | 11.0 | 0.00 | 0.00 | 0.00 | 62 | 1012.6 |
| 20260504221532 | 82 | 169 | 6.0 | 12.0 | 0.00 | 0.00 | 0.00 | 61 | 1012.7 |
| 20260504220901 | 81 | 167 | 6.0 | 9.0 | 0.00 | 0.00 | 0.00 | 61 | 1009.9 |
| 20260504220536 | 82 | 167 | 6.0 | 9.0 | 0.00 | 0.00 | 0.00 | 62 | 1012.9 |
| 20260504215518 | 82 | 145 | 6.0 | 12.0 | 0.00 | 0.00 | 0.00 | 62 | 1013.0 |
| 20260504214520 | 81 | 182 | 6.0 | 10.0 | 0.00 | 0.00 | 0.00 | 62 | 1013.3 |
| 20260504213901 | 81 | 177 | 6.0 | 11.0 | 0.00 | 0.00 | 0.00 | 61 | 1010.5 |
| 20260504213523 | 81 | 178 | 6.0 | 12.0 | 0.00 | 0.00 | 0.00 | 62 | 1013.4 |
| 20260504212525 | 81 | 197 | 6.0 | 13.0 | 0.00 | 0.00 | 0.00 | 63 | 1013.4 |
| 20260504211527 | 81 | 139 | 7.0 | 10.0 | 0.00 | 0.00 | 0.00 | 62 | 1013.3 |
| 20260504210901 | 81 | 165 | 5.0 | 11.0 | 0.00 | 0.00 | 0.00 | 62 | 1010.5 |
| 20260504210523 | 82 | 165 | 6.0 | 11.0 | 0.00 | 0.00 | 0.00 | 62 | 1013.5 |
| 20260504205519 | 80 | 204 | 7.0 | 15.0 | 0.00 | 0.00 | 0.00 | 64 | 1013.9 |
| 20260504204515 | 81 | 183 | 8.0 | 15.0 | 0.00 | 0.00 | 0.00 | 62 | 1014.1 |
| 20260504203901 | 83 | 187 | 7.0 | 13.0 | 0.00 | 0.00 | 0.00 | 59 | 1011.0 |
| 20260504203517 | 83 | 188 | 8.0 | 14.0 | 0.00 | 0.00 | 0.00 | 60 | 1014.1 |
| 20260504202520 | 82 | 190 | 7.0 | 10.0 | 0.00 | 0.00 | 0.00 | 61 | 1014.3 |
| 20260504201521 | 81 | 173 | 7.0 | 10.0 | 0.00 | 0.00 | 0.00 | 62 | 1014.5 |
| 20260504200901 | 81 | 167 | 5.0 | 9.0 | 0.00 | 0.00 | 0.00 | 62 | 1011.8 |
| 20260504200524 | 81 | 168 | 6.0 | 10.0 | 0.00 | 0.00 | 0.00 | 62 | 1014.7 |
| 20260504195526 | 81 | 165 | 8.0 | 13.0 | 0.00 | 0.00 | 0.00 | 61 | 1014.8 |
| 20260504194528 | 81 | 167 | 7.0 | 11.0 | 0.00 | 0.00 | 0.00 | 62 | 1015.0 |
| 20260504193901 | 81 | 157 | 8.0 | 12.0 | 0.00 | 0.00 | 0.00 | 62 | 1012.1 |
| 20260504193531 | 81 | 157 | 8.0 | 12.0 | 0.00 | 0.00 | 0.00 | 62 | 1015.1 |
| 20260504192553 | 81 | 156 | 7.0 | 11.0 | 0.00 | 0.00 | 0.00 | 63 | 1015.0 |
| 20260504191517 | 81 | 191 | 8.0 | 13.0 | 0.00 | 0.00 | 0.00 | 62 | 1015.0 |
| 20260504190901 | 79 | 165 | 7.0 | 12.0 | 0.00 | 0.00 | 0.00 | 63 | 1012.6 |
| 20260504190519 | 80 | 166 | 7.0 | 13.0 | 0.00 | 0.00 | 0.00 | 64 | 1015.3 |
| 20260504185521 | 81 | 159 | 7.0 | 12.0 | 0.00 | 0.00 | 0.00 | 62 | 1015.3 |
| 20260504184523 | 80 | 193 | 6.0 | 12.0 | 0.00 | 0.00 | 0.00 | 64 | 1015.4 |
| 20260504183901 | 79 | 172 | 7.0 | 12.0 | 0.00 | 0.00 | 0.00 | 64 | 1012.9 |
| 20260504183525 | 80 | 173 | 8.0 | 12.0 | 0.00 | 0.00 | 0.00 | 64 | 1015.5 |
| 20260504182522 | 79 | 153 | 7.0 | 10.0 | 0.00 | 0.00 | 0.00 | 66 | 1015.7 |
| 20260504181518 | 79 | 187 | 7.0 | 12.0 | 0.00 | 0.00 | 0.00 | 66 | 1015.9 |
| 20260504180901 | 77 | 189 | 7.0 | 11.0 | 0.00 | 0.00 | 0.00 | 67 | 1013.6 |
| 20260504180532 | 77 | 190 | 7.0 | 11.0 | 0.00 | 0.00 | 0.00 | 68 | 1016.0 |
| 20260504175536 | 78 | 176 | 6.0 | 9.0 | 0.00 | 0.00 | 0.00 | 68 | 1016.2 |
| 20260504174519 | 75 | 163 | 9.0 | 12.0 | 0.00 | 0.00 | 0.00 | 70 | 1016.4 |
| 20260504173901 | 74 | 187 | 7.0 | 10.0 | 0.00 | 0.00 | 0.00 | 71 | 1014.3 |
| 20260504173521 | 75 | 188 | 7.0 | 10.0 | 0.00 | 0.00 | 0.00 | 72 | 1016.5 |
| 20260504172524 | 75 | 157 | 8.0 | 15.0 | 0.00 | 0.00 | 0.00 | 72 | 1016.6 |
| 20260504171546 | 73 | 196 | 5.0 | 9.0 | 0.00 | 0.00 | 0.00 | 75 | 1016.6 |
| 20260504170901 | 73 | 179 | 5.0 | 9.0 | 0.00 | 0.00 | 0.00 | 74 | 1014.6 |
| 20260504170528 | 73 | 180 | 5.0 | 9.0 | 0.00 | 0.00 | 0.00 | 74 | 1016.6 |
| 20260504150901 | 66 | 142 | 7.0 | 12.0 | 0.00 | 0.00 | 0.00 | 86 | 1016.3 |
| 20260504150520 | 67 | 142 | 7.0 | 13.0 | 0.00 | 0.00 | 0.00 | 86 | 1017.6 |
| 20260504140901 | 64 | 208 | 4.0 | 6.0 | 0.00 | 0.00 | 0.00 | 89 | 1016.4 |
| 20260504140515 | 65 | 208 | 4.0 | 6.0 | 0.00 | 0.00 | 0.00 | 89 | 1017.5 |
| 20260504130524 | 62 | 166 | 4.0 | 7.0 | 0.00 | 0.00 | 0.00 | 91 | 1017.3 |
| 20260504110520 | 60 | 140 | 4.0 | 7.0 | 0.00 | 0.00 | 0.00 | 90 | 1016.8 |
| 20260504100516 | 61 | 169 | 5.0 | 12.0 | 0.00 | 0.00 | 0.00 | 89 | 1017.4 |
| 20260504081536 | 60 | 142 | 1.0 | 4.0 | 0.00 | 0.00 | 0.00 | 89 | 1018.1 |
| 20260504080901 | 59 | 165 | 2.0 | 4.0 | 0.00 | 0.00 | 0.00 | 89 | 1017.5 |
| 20260504080518 | 60 | 166 | 2.0 | 5.0 | 0.00 | 0.00 | 0.00 | 89 | 1018.0 |
| 20260504050521 | 59 | 0.0 | 1.0 | 0.00 | 0.00 | 0.00 | 80 | 1019.9 | |
| 20260504045517 | 59 | 135 | 0.0 | 2.0 | 0.00 | 0.00 | 0.00 | 81 | 1019.8 |
| 20260504044545 | 58 | 0.0 | 0.0 | 0.00 | 0.00 | 0.00 | 84 | 1019.8 | |
| 20260504043901 | 58 | 0 | 0.0 | 0.0 | 0.00 | 0.00 | 0.00 | 82 | 1019.4 |
| 20260504043528 | 59 | 0.0 | 0.0 | 0.00 | 0.00 | 0.00 | 82 | 1019.8 | |
| 20260504042530 | 59 | 0.0 | 0.0 | 0.00 | 0.00 | 0.00 | 82 | 1019.8 | |
| 20260504041552 | 59 | 203 | 0.0 | 2.0 | 0.00 | 0.00 | 0.00 | 80 | 1019.8 |
| 20260504040901 | 59 | 0 | 0.0 | 0.0 | 0.00 | 0.00 | 0.00 | 78 | 1019.2 |
| 20260504040516 | 60 | 0.0 | 0.0 | 0.00 | 0.00 | 0.00 | 78 | 1019.7 | |
| 20260504035519 | 60 | 68 | 0.0 | 1.0 | 0.00 | 0.00 | 0.00 | 78 | 1019.8 |
| 20260504034601 | 61 | 0.0 | 0.0 | 0.00 | 0.00 | 0.00 | 76 | 1019.9 | |
| 20260504033901 | 61 | 0 | 0.0 | 0.0 | 0.00 | 0.00 | 0.00 | 75 | 1019.3 |
| 20260504033523 | 61 | 0.0 | 0.0 | 0.00 | 0.00 | 0.00 | 75 | 1019.9 | |
| 20260504032525 | 62 | 0.0 | 0.0 | 0.00 | 0.00 | 0.00 | 74 | 1019.9 | |
| 20260504031528 | 62 | 0.0 | 0.0 | 0.00 | 0.00 | 0.00 | 73 | 1019.8 | |
| 20260504030901 | 62 | 0 | 0.0 | 0.0 | 0.00 | 0.00 | 0.00 | 70 | 1019.1 |
| 20260504030550 | 63 | 0.0 | 0.0 | 0.00 | 0.00 | 0.00 | 70 | 1019.9 | |
| 20260504025552 | 63 | 0.0 | 0.0 | 0.00 | 0.00 | 0.00 | 69 | 1019.8 | |
| 20260504024536 | 64 | 0.0 | 0.0 | 0.00 | 0.00 | 0.00 | 67 | 1019.9 | |
| 20260504023901 | 64 | 184 | 0.0 | 1.0 | 0.00 | 0.00 | 0.00 | 66 | 1018.9 |
| 20260504023518 | 64 | 184 | 1.0 | 2.0 | 0.00 | 0.00 | 0.00 | 67 | 1019.9 |
| 20260504022521 | 64 | 113 | 0.0 | 2.0 | 0.00 | 0.00 | 0.00 | 66 | 1019.9 |
| 20260504021517 | 65 | 203 | 0.0 | 2.0 | 0.00 | 0.00 | 0.00 | 64 | 1019.9 |
| 20260504020901 | 65 | 0 | 0.0 | 1.0 | 0.00 | 0.00 | 0.00 | 61 | 1018.8 |
| 20260504020525 | 65 | 0.0 | 1.0 | 0.00 | 0.00 | 0.00 | 62 | 1019.9 | |
| 20260504015527 | 66 | 113 | 0.0 | 2.0 | 0.00 | 0.00 | 0.00 | 61 | 1019.8 |
| 20260504014529 | 67 | 0.0 | 0.0 | 0.00 | 0.00 | 0.00 | 57 | 1019.8 | |
| 20260504013901 | 68 | 148 | 1.0 | 5.0 | 0.00 | 0.00 | 0.00 | 56 | 1018.3 |
| 20260504013531 | 68 | 149 | 2.0 | 6.0 | 0.00 | 0.00 | 0.00 | 56 | 1019.7 |
| 20260504012536 | 69 | 187 | 3.0 | 5.0 | 0.00 | 0.00 | 0.00 | 55 | 1019.7 |
| 20260504011557 | 70 | 195 | 1.0 | 3.0 | 0.00 | 0.00 | 0.00 | 53 | 1019.6 |
| 20260504010901 | 70 | 150 | 2.0 | 2.0 | 0.00 | 0.00 | 0.00 | 51 | 1017.9 |
| 20260504010520 | 71 | 151 | 2.0 | 3.0 | 0.00 | 0.00 | 0.00 | 51 | 1019.6 |
| 20260504005522 | 72 | 160 | 2.0 | 4.0 | 0.00 | 0.00 | 0.00 | 49 | 1019.5 |
| 20260504004524 | 72 | 151 | 4.0 | 6.0 | 0.00 | 0.00 | 0.00 | 47 | 1019.4 |
| 20260504003901 | 72 | 157 | 4.0 | 7.0 | 0.00 | 0.00 | 0.00 | 45 | 1017.4 |
| 20260504003526 | 73 | 158 | 4.0 | 8.0 | 0.00 | 0.00 | 0.00 | 46 | 1019.4 |
| 20260504002527 | 73 | 154 | 5.0 | 7.0 | 0.00 | 0.00 | 0.00 | 45 | 1019.5 |
| 20260504001529 | 74 | 156 | 5.0 | 8.0 | 0.00 | 0.00 | 0.00 | 44 | 1019.6 |
| 20260504000901 | 75 | 174 | 4.0 | 7.0 | 0.00 | 0.00 | 0.00 | 43 | 1017.4 |
| 20260504000525 | 75 | 174 | 5.0 | 8.0 | 0.00 | 0.00 | 0.00 | 43 | 1019.6 |
| 20260503235521 | 76 | 184 | 6.0 | 12.0 | 0.00 | 0.00 | 0.00 | 42 | 1019.8 |
| 20260503234517 | 77 | 126 | 5.0 | 9.0 | 0.00 | 0.00 | 0.00 | 42 | 1019.8 |
| 20260503233901 | 76 | 151 | 6.0 | 10.0 | 0.00 | 0.00 | 0.00 | 40 | 1017.4 |
| 20260503233519 | 77 | 152 | 7.0 | 11.0 | 0.00 | 0.00 | 0.00 | 41 | 1019.8 |
| 20260503232521 | 78 | 162 | 5.0 | 9.0 | 0.00 | 0.00 | 0.00 | 39 | 1019.8 |
| 20260503231523 | 79 | 138 | 5.0 | 9.0 | 0.00 | 0.00 | 0.00 | 40 | 1019.9 |
| 20260503230901 | 76 | 143 | 6.0 | 10.0 | 0.00 | 0.00 | 0.00 | 40 | 1017.7 |
| 20260503230526 | 77 | 144 | 6.0 | 11.0 | 0.00 | 0.00 | 0.00 | 40 | 1020.0 |
| 20260503225528 | 76 | 177 | 5.0 | 7.0 | 0.00 | 0.00 | 0.00 | 41 | 1019.9 |
| 20260503224531 | 77 | 156 | 6.0 | 9.0 | 0.00 | 0.00 | 0.00 | 41 | 1020.0 |